{"data":{"norad_id":64564,"intl_designator":"2025-135AN","name":"TIME FLIES","alt_names":[],"object_type":"PAYLOAD","status":"ACTIVE","operator":null,"country":"US","launch_date":"2025-06-23","launch_site_code":"AFWTR","launch_vehicle":null,"mission":null,"orbit_class":"UNKNOWN","rcs_meters":null,"size_class":null,"mass_kg":null,"dimensions":null,"purposes":[],"wikipedia_slug":null,"has_3d_model":false,"image_url":null,"decayed_at":null,"tle_current":{"epoch":"2026-05-25T00:42:02.916288Z","epoch_age_seconds":82999,"freshness":"FRESH","line1":"1 64564U 25135AN  26145.02920042  .00002391  00000+0  22525-3 0  9991","line2":"2 64564  97.7683 259.7110 0002078  32.4013 327.7334 14.94773800 50447","mean_motion":14.947738,"eccentricity":0.0002078,"inclination_deg":97.7683,"raan_deg":259.711,"arg_perigee_deg":32.4013,"mean_anomaly_deg":327.7334,"bstar":0.00022525,"rev_number":5044,"period_min":96.33564623624,"perigee_km":581.62840336625,"apogee_km":584.52148304985,"semimajor_km":6961.211943208,"source":"CELESTRAK","updated_at":"2026-05-25T13:38:04.618337Z"}}}